CAPE
18 28 16 0 0 0 7 16 4 1 3 4 5 16 2 0 0 12 70 143 292 305 242 200 164 147 63 31 0 0 0 0 0 0 3 69 0 0 0 0 0 0 0 0 0 0 0
34 30 30 16 4 0 3 14 9 4 15 22 17 27 37 21 15 28 38 123 329 390 334 259 226 226 52 4 0 0 0 0 0 0 45 66 0 0 0 0 0 0 0 0 0 0 0
25 35 33 33 1 0 1 5 22 8 28 43 31 30 40 20 49 53 51 103 273 380 368 272 256 84 52 1 0 0 0 0 0 0 78 50 0 0 0 0 0 0 0 0 0 0 0
15 25 24 28 7 1 1 3 21 20 27 60 41 42 37 27 39 49 83 113 233 437 435 353 333 85 20 0 0 0 0 1 0 0 55 70 0 0 1 0 0 0 0 0 0 0 0
15 11 23 29 27 4 4 2 16 20 10 45 42 38 71 84 44 31 46 103 192 329 420 381 130 76 27 0 0 0 0 1 0 0 5 50 21 1 13 3 0 0 0 0 0 0 0
38 13 12 33 30 33 19 1 0 13 28 18 0 35 59 66 84 68 54 92 107 136 190 105 111 88 23 0 0 0 0 0 26 0 55 112 27 10 0 0 7 0 0 0 0 0 0
34 44 15 33 23 31 17 1 0 13 3 32 40 33 32 35 74 109 68 30 17 46 43 15 50 20 0 1 0 0 0 0 34 36 29 28 15 22 0 0 0 0 0 0 0 0 0
30 39 28 26 23 17 16 0 0 2 7 28 37 28 22 41 58 52 5 11 5 4 39 35 1 8 4 68 75 5 1 5 37 13 21 70 21 0 0 0 0 0 0 0 0 0 0
28 32 34 13 15 11 9 0 0 0 3 40 52 29 28 57 36 51 3 4 57 44 40 19 1 26 11 66 42 51 13 40 1 26 47 10 0 1 0 0 0 0 0 0 0 0 0
27 29 34 28 4 7 5 4 1 0 3 35 50 29 24 29 11 45 24 37 55 69 2 5 42 56 8 38 64 93 42 49 14 1 33 25 0 4 0 0 0 0 0 0 0 0 0
31 28 34 34 24 6 5 1 5 0 1 14 43 34 15 11 34 9 11 10 46 70 0 3 81 133 100 40 35 61 21 111 0 0 43 0 0 11 25 0 0 0 0 0 0 0 0
46 31 41 36 35 25 8 5 2 0 0 0 13 26 16 16 30 35 39 48 37 28 22 23 78 32 77 55 48 52 42 1 0 12 0 0 1 16 0 0 0 0 0 0 0 0 0
53 52 53 54 34 33 24 8 1 2 0 0 1 8 16 18 25 54 62 75 29 23 1 34 5 27 27 64 37 42 47 44 4 43 21 0 0 0 0 0 0 0 0 0 0 0 0
53 52 53 60 30 34 32 14 1 0 0 0 0 14 10 4 17 30 69 43 14 5 10 18 34 15 1 52 18 55 16 18 7 0 0 0 0 0 0 0 0 0 0 0 0 0 0
40 35 30 40 46 30 26 9 6 1 0 0 9 0 4 4 24 9 38 5 14 6 24 9 11 11 25 33 13 6 2 0 0 0 0 0 0 0 0 0 0 0 0 0 0 0 0
35 28 16 37 52 21 16 7 10 5 0 2 1 0 0 0 12 14 34 17 16 0 4 0 4 11 16 8 2 13 3 0 0 0 0 0 0 0 0 0 0 0 0 0 0 0 0
26 23 17 28 48 13 5 5 9 11 1 0 0 0 2 6 17 14 26 11 1 2 18 26 3 8 0 0 0 1 0 0 0 0 0 0 0 0 0 0 0 0 0 0 0 0 0
26 26 19 25 34 7 5 3 7 8 0 0 0 0 2 0 1 0 6 33 0 0 15 35 1 0 0 0 0 0 0 0 0 0 1 0 0 0 0 0 0 0 0 0 0 0 0
25 23 18 22 26 5 4 4 4 6 1 0 0 1 2 0 0 0 10 17 27 38 24 25 0 0 1 0 0 0 0 0 0 0 0 0 0 0 0 0 0 0 0 0 0 0 0
18 20 19 23 21 4 8 4 2 3 4 0 0 0 0 1 0 0 0 10 2 0 0 0 4 1 14 1 0 0 0 0 0 0 0 0 0 0 0 0 0 0 0 0 0 0 0
16 19 20 10 21 9 9 1 1 2 0 0 0 0 0 0 0 0 0 0 0 0 0 0 8 6 1 0 0 0 0 0 0 0 0 0 0 0 0 0 0 0 0 0 0 0 0
14 17 18 17 25 6 7 2 0 0 0 0 0 0 0 0 0 0 0 0 0 0 0 0 0 0 0 0 0 0 0 0 0 0 0 0 0 0 0 0 0 0 0 0 0 0 0
18 18 15 12 10 6 8 3 0 0 0 0 0 0 0 0 0 0 0 0 0 0 0 0 0 0 0 0 0 0 0 0 0 0 0 0 0 0 0 0 0 0 0 0 0 0 0
14 14 9 11 10 8 7 3 1 0 0 0 0 0 0 0 0 0 0 0 0 0 0 0 0 0 0 0 0 0 0 0 0 0 0 0 0 0 0 0 0 0 0 0 0 0 0
14 12 8 10 11 14 7 2 1 0 0 0 0 0 0 0 0 0 0 0 0 0 0 0 0 0 0 0 0 0 0 0 0 0 0 0 0 0 0 0 0 0 0 0 0 0 0
14 9 12 12 10 14 4 0 1 1 0 0 0 0 0 0 0 0 0 0 0 0 0 0 0 0 0 0 0 0 0 0 0 0 0 0 0 0 0 0 0 0 0 0 0 0 0
8 9 14 13 14 11 5 0 0 0 0 0 0 0 0 0 0 0 0 0 0 0 0 0 0 0 0 0 0 0 0 0 0 0 0 0 0 0 0 0 0 0 0 0 0 0 0
3 9 15 15 12 9 6 0 0 0 0 0 0 0 0 0 0 0 0 0 0 0 0 0 0 0 0 0 0 0 0 0 0 0 0 0 0 0 0 0 0 0 0 0 0 0 0
1 6 16 12 12 6 6 3 0 0 0 0 0 0 0 0 0 0 0 0 0 0 0 0 0 0 0 0 0 0 0 0 0 0 0 0 0 0 0 0 0 0 0 0 0 0 0
CIN
0 0 0 0 0 0 0 0 0 0 0 0 0 0 0 0 0 -9 -1 -1 0 0 0 0 0 -1 -1 0 0 0 0 0 0 0 -17 -6 0 0 0 0 0 0 0 0 0 0 0
0 0 0 0 0 0 0 0 0 0 -1 0 -1 -3 -2 0 -6 -2 -6 -1 -1 0 0 0 -1 -1 -1 -1 0 0 0 0 0 0 -22 -16 0 0 0 0 0 0 0 0 0 0 0
0 0 0 0 0 0 0 0 0 0 0 0 0 -3 -2 -2 0 0 0 0 0 0 -7 -5 0 -5 0 0 0 0 0 0 0 0 -28 -41 0 0 0 0 0 0 0 0 0 0 0
0 0 0 0 0 0 0 0 0 0 0 0 -2 0 -2 0 0 0 -2 0 0 -1 -5 -6 0 -9 0 0 0 0 0 -2 0 0 -56 -37 -44 -11 -11 0 0 0 0 0 0 0 0
-1 -1 0 0 0 0 0 0 0 0 -3 0 0 0 0 0 0 0 -2 -1 -2 -1 -2 -6 -6 -7 -1 0 0 0 0 -1 0 0 -27 -44 -64 -9 -35 -22 0 0 0 0 0 0 0
-1 -2 -1 0 0 0 0 0 0 0 0 0 0 0 0 0 0 0 -9 0 -3 -1 -8 -10 -7 -2 -11 0 0 0 0 0 -4 0 -14 -3 -18 -19 0 0 -3 0 0 0 0 0 0
0 0 0 0 0 0 0 0 0 0 0 0 0 0 0 0 0 0 0 -3 -4 -1 -3 -4 -4 -1 0 -4 0 0 0 0 -5 0 -1 -8 -13 -2 0 0 0 0 0 0 0 0 0
-4 0 0 0 0 0 0 0 0 0 0 0 -1 0 0 0 0 0 -6 -1 -2 -5 0 -10 -11 -7 -86 -6 -2 -56 -17 -3 -1 0 -14 0 -13 0 0 0 0 0 0 0 0 0 0
-9 -2 0 0 0 0 0 0 0 0 0 0 0 -1 -1 0 0 0 -24 -11 -11 -10 0 -1 -12 -30 -25 -7 -6 -1 -12 -6 0 -1 0 -5 0 -9 0 0 0 0 0 0 0 0 0
-9 -5 -2 0 0 0 0 0 0 0 0 0 0 0 -12 0 -3 -1 0 -12 -17 -8 -1 -2 -6 -43 -13 -8 -3 -11 -11 -7 -1 -2 0 -6 0 -33 0 0 0 -5 0 0 0 0 0
-4 -7 -2 -3 0 0 0 0 0 0 0 0 0 -7 -22 -20 0 -2 -8 -12 -5 -1 0 -6 -17 -42 -30 -3 -25 -7 -21 0 0 0 -3 -36 0 -13 -2 0 0 0 0 0 0 0 0
0 -3 -3 -2 -1 0 0 0 0 0 0 0 0 0 0 -1 -1 -2 -2 -9 -12 0 -5 -3 -15 -11 -1 -2 -3 -23 -1 -4 0 -2 0 0 -13 -41 0 0 0 0 0 0 0 0 0
-2 0 -2 -2 -3 0 0 0 0 0 0 0 0 0 0 0 -1 0 -4 -1 0 0 0 0 0 -12 -2 0 -1 0 0 -2 -1 -1 -4 0 0 0 0 0 0 0 0 0 0 0 0
0 0 0 0 -1 -1 0 0 0 0 0 0 0 0 0 0 0 -3 -1 0 0 -1 0 0 0 0 -20 -1 -2 0 -2 0 -3 0 0 0 0 0 0 0 0 0 0 0 0 0 0
-4 -1 0 0 0 -1 0 0 0 0 0 0 0 0 -1 -1 -1 -1 0 0 -1 -7 -1 0 0 0 -3 -2 -2 -1 0 0 0 0 0 0 0 0 0 0 0 0 0 0 0 0 0
-3 -4 -4 0 0 0 0 0 0 0 0 0 0 0 0 0 0 0 0 0 0 0 -2 0 -1 0 0 0 -1 0 -1 0 0 0 0 0 0 0 0 0 0 0 0 0 0 0 0
-11 -6 -2 0 0 -1 0 0 0 0 0 0 0 0 0 0 -1 0 0 0 0 -9 -16 -2 -5 -1 0 -1 0 -1 0 -2 -7 0 0 0 0 0 0 0 0 0 0 0 0 0 0
-6 -5 -1 0 0 -9 0 0 0 0 0 0 0 0 0 0 0 0 -1 0 -1 -1 -18 -5 -3 0 0 0 0 0 0 0 0 0 -51 0 0 0 0 0 0 0 0 0 0 0 0
-4 -4 -1 0 0 -15 -2 -2 0 0 0 0 0 0 0 0 0 0 -2 0 -10 -1 -10 -10 0 0 -1 0 -1 0 0 0 0 0 0 0 0 0 0 0 0 0 0 0 0 0 0
-2 -2 -1 0 0 -5 -5 -3 0 0 0 0 0 0 0 0 0 0 0 -7 0 0 0 0 -6 -11 -16 -23 0 0 0 0 0 0 0 0 0 0 0 0 0 0 0 0 0 0 0
-1 -2 -1 -3 0 -2 -5 -4 0 0 0 0 0 0 0 0 0 0 0 0 0 0 0 0 -23 -20 -7 0 0 0 0 0 0 0 0 0 0 0 0 0 0 0 0 0 0 0 0
-6 -3 -1 0 0 -3 -4 -5 -1 0 0 0 0 0 0 0 0 0 0 0 0 0 0 0 0 0 0 0 0 0 0 0 0 0 0 0 0 0 0 0 0 0 0 0 0 0 0
-9 -5 -2 -2 -2 -2 -2 -4 -2 0 0 0 0 0 0 0 0 0 0 0 0 0 0 0 0 0 0 0 0 0 0 0 0 0 0 0 0 0 0 0 0 0 0 0 0 0 0
-10 -4 -6 -3 -4 -1 -2 -3 -3 0 0 0 0 0 0 0 0 0 0 0 0 0 0 0 0 0 0 0 0 0 0 0 0 0 0 0 0 0 0 0 0 0 0 0 0 0 0
-13 -3 -7 -3 -3 0 -3 -4 -5 0 0 0 0 0 0 0 0 0 0 0 0 0 0 0 0 0 0 0 0 0 0 0 0 0 0 0 0 0 0 0 0 0 0 0 0 0 0
-9 -7 -5 -3 -2 0 -3 -1 -6 -3 0 0 0 0 0 0 0 0 0 0 0 0 0 0 0 0 0 0 0 0 0 0 0 0 0 0 0 0 0 0 0 0 0 0 0 0 0
-8 -5 -4 -3 -1 -2 -3 0 0 -4 0 0 0 0 0 0 0 0 0 0 0 0 0 0 0 0 0 0 0 0 0 0 0 0 0 0 0 0 0 0 0 0 0 0 0 0 0
-17 -10 -6 -3 -2 -6 -5 -1 0 0 0 0 0 0 0 0 0 0 0 0 0 0 0 0 0 0 0 0 0 0 0 0 0 0 0 0 0 0 0 0 0 0 0 0 0 0 0
0 -9 -7 -4 -6 -8 -6 -3 -1 0 0 0 0 0 0 0 0 0 0 0 0 0 0 0 0 0 0 0 0 0 0 0 0 0 0 0 0 0 0 0 0 0 0 0 0 0 0
Wind_Speed
9 10 9 8 9 10 10 10 10 9 10 10 9 9 9 7 8 9 11 13 13 13 13 13 14 11 5 8 11 5 12 13 21 14 15 9 6 6 8 6 3 4 6 5 9 9 7
11 11 11 9 10 10 10 11 11 9 9 11 10 10 9 9 9 10 11 11 14 14 12 13 14 12 3 17 8 13 6 5 14 17 15 11 9 6 5 6 8 6 6 9 6 10 5
16 11 12 9 9 11 10 11 12 9 9 11 9 11 10 9 11 12 12 13 13 14 13 14 13 7 9 17 4 4 11 5 12 14 15 10 6 7 6 3 7 3 4 7 8 8 8
14 10 11 10 10 11 11 12 13 11 9 10 8 10 10 11 12 11 13 13 12 11 12 14 13 6 8 8 14 11 9 4 6 8 10 10 5 5 4 2 4 4 2 3 4 3 6
11 11 10 12 12 11 13 12 13 12 9 10 9 10 13 16 15 14 12 12 12 11 13 11 3 6 7 5 9 14 11 5 5 4 5 5 4 4 2 4 2 1 3 5 9 5 1
11 12 10 12 14 13 12 12 13 13 10 10 11 14 13 14 14 17 15 11 6 5 6 3 3 6 4 12 5 7 9 9 3 8 6 8 5 5 4 4 9 5 3 5 5 4 1
13 12 11 12 13 11 11 13 13 13 12 11 12 14 15 14 12 13 11 4 2 4 6 8 8 7 6 7 8 10 9 10 3 10 16 11 8 15 13 11 3 4 4 3 5 6 5
14 13 12 13 12 13 10 14 11 13 14 14 12 15 14 13 6 9 11 5 5 2 6 10 5 18 5 7 7 13 16 11 8 19 17 8 16 15 7 4 5 3 2 5 8 4 4
14 13 13 11 12 13 11 13 11 13 14 14 12 13 14 8 1 10 9 10 4 6 5 5 7 11 7 5 6 16 20 8 10 19 22 12 10 9 14 7 7 4 4 4 6 9 4
14 13 11 10 12 13 12 13 12 12 13 12 12 11 10 4 2 4 8 10 7 3 4 7 7 5 8 7 6 8 14 10 7 23 20 10 8 12 10 9 10 11 8 3 6 4 4
13 15 11 12 10 13 13 14 12 12 12 12 12 11 7 11 2 1 4 10 7 3 6 8 5 2 7 7 13 8 3 9 19 17 9 6 9 15 13 7 8 8 6 6 5 4 3
13 15 12 12 10 11 13 14 13 13 11 12 10 11 8 4 3 5 5 6 5 6 5 7 6 6 8 11 6 6 6 1 7 14 4 5 6 13 14 5 10 3 4 5 3 3 3
12 13 13 10 13 9 11 13 15 14 12 13 12 12 6 2 3 9 5 2 5 5 6 10 7 9 10 8 10 9 10 11 14 20 13 3 6 6 6 6 4 5 6 1 2 2 7
12 11 12 14 12 11 11 13 15 15 14 14 14 14 7 7 7 11 4 6 7 3 6 6 9 15 3 11 5 5 3 18 10 8 10 5 7 10 5 8 9 8 8 7 7 4 5
11 9 10 15 13 13 11 14 15 15 15 15 15 3 3 7 10 8 5 4 1 4 6 10 15 8 8 8 6 5 2 9 12 14 8 6 3 3 2 4 10 6 5 5 3 1 1
10 10 10 14 14 13 13 14 15 14 15 15 1 2 2 10 14 7 4 5 3 6 12 14 7 7 5 9 6 6 0 1 5 8 2 6 6 2 2 4 4 6 7 3 3 3 5
9 12 11 14 12 12 11 13 15 15 15 5 2 1 3 12 7 3 3 2 5 14 5 7 6 6 10 13 9 6 3 7 4 5 5 5 5 1 4 4 8 3 2 5 4 4 4
11 13 11 12 10 12 10 12 15 14 14 5 2 1 5 6 2 1 2 2 9 9 2 4 3 8 6 7 6 6 6 4 5 8 8 2 6 5 3 1 3 3 7 6 6 5 2
12 12 10 10 9 12 10 10 13 12 6 1 1 3 2 3 1 2 2 4 2 3 5 5 5 6 4 6 7 2 5 1 3 5 7 6 1 5 3 4 3 4 5 4 4 3 6
11 11 10 9 10 11 10 8 11 11 3 2 1 2 1 2 3 4 7 2 4 3 2 5 3 5 5 3 3 5 3 3 2 3 5 6 4 7 9 6 6 5 5 6 6 4 4
12 11 10 8 10 9 10 8 11 10 8 4 2 4 3 4 4 3 4 6 3 3 3 5 5 6 4 4 3 6 3 4 3 3 3 3 4 3 3 4 4 4 6 9 7 5 7
11 12 11 8 8 8 9 6 9 10 3 2 1 0 3 1 2 4 3 1 3 2 2 1 5 1 1 4 3 5 7 3 4 3 2 3 2 3 2 4 4 1 2 6 3 3 3
12 11 10 8 7 8 8 6 6 9 1 2 1 2 3 3 1 3 3 5 6 6 5 2 13 8 5 7 4 5 6 7 5 6 3 3 6 3 3 2 3 4 9 7 5 4 6
11 11 10 8 7 8 8 4 4 5 3 2 2 2 4 2 0 2 4 3 5 1 7 3 3 6 6 4 4 7 9 11 11 8 3 5 4 3 3 2 2 2 3 4 6 4 4
12 12 10 9 8 8 7 3 2 3 3 2 2 3 3 2 1 3 4 6 6 6 6 4 4 2 3 4 5 7 6 7 6 6 7 4 5 4 4 4 2 2 4 7 5 2 3
13 12 10 10 8 7 6 3 2 2 4 3 1 2 2 6 2 3 4 1 5 4 3 3 2 1 4 4 3 6 6 5 3 4 5 5 5 4 3 4 6 2 1 2 4 2 2
14 13 11 10 9 7 7 4 2 1 2 2 1 1 3 4 2 1 3 5 4 5 5 2 3 2 2 2 3 3 3 4 6 8 5 2 3 4 2 2 6 4 2 2 4 5 3
15 13 11 10 10 9 7 5 3 1 1 2 1 1 3 3 3 3 2 4 3 2 5 4 4 2 3 3 3 3 3 4 3 5 7 7 6 4 3 2 7 0 2 6 4 3 5
16 13 12 11 11 9 8 6 4 3 3 2 2 1 1 5 2 1 2 2 2 2 6 1 1 3 5 6 1 3 2 1 3 4 1 3 6 6 7 5 2 2 5 4 6 6 4
Wind_Direction
315 298 284 293 294 292 295 294 296 303 305 304 306 293 289 271 257 268 273 253 238 229 230 232 217 201 173 216 230 284 24 231 211 213 221 204 173 151 174 179 165 212 260 252 254 276 249
306 300 285 284 285 290 290 291 292 293 294 295 304 300 293 277 274 267 263 252 244 227 217 220 214 202 206 230 228 274 321 322 201 196 214 202 204 174 170 200 170 208 235 263 281 272 256
327 298 300 282 278 286 286 288 288 284 291 290 299 289 284 280 273 253 246 241 237 233 213 219 212 195 221 228 189 351 241 261 205 198 209 207 226 182 146 163 217 225 280 302 252 261 244
330 312 307 298 274 286 282 284 285 282 293 298 305 291 283 280 260 260 248 244 235 226 218 215 216 186 240 216 255 292 312 242 179 230 258 181 162 201 174 185 40 174 131 277 283 290 273
326 310 302 298 272 280 286 288 289 288 295 307 316 304 296 284 247 243 250 235 227 229 219 221 182 207 232 224 207 227 237 273 160 229 293 233 163 201 86 143 63 39 200 227 308 228 235
317 301 296 295 286 271 285 284 286 290 294 296 305 308 302 294 273 234 229 221 238 246 241 216 257 177 263 216 158 173 183 216 160 186 212 205 145 160 128 148 201 191 179 256 242 290 25
323 314 318 294 296 284 283 279 283 290 291 290 292 298 302 303 290 232 185 137 113 222 185 193 177 233 289 199 148 185 160 183 185 191 194 185 182 193 178 198 158 181 188 222 254 247 219
320 321 322 312 297 294 285 279 284 285 287 285 281 293 299 298 293 174 151 199 176 170 161 228 274 217 301 181 159 177 150 170 172 194 187 164 210 203 169 154 160 183 202 266 292 330 183
314 318 314 321 303 296 292 283 284 286 290 291 289 283 297 293 215 158 183 200 143 253 156 206 233 207 217 212 169 175 165 183 179 191 194 203 180 159 185 183 186 219 200 242 226 320 295
306 314 306 311 307 300 293 289 287 288 289 289 298 302 302 151 157 175 199 174 185 216 147 176 204 216 187 227 185 143 188 180 161 196 189 223 189 160 190 204 181 224 201 204 276 316 250
301 307 317 301 302 304 295 289 288 287 288 289 289 291 276 182 318 324 98 128 161 207 151 167 155 138 177 195 130 188 150 205 173 162 185 182 158 173 198 192 163 223 152 198 230 227 353
296 295 305 304 301 301 301 296 293 291 290 286 281 283 265 240 224 127 155 138 62 238 123 171 136 159 145 203 157 138 212 74 168 146 26 159 178 186 191 187 181 124 88 52 65 73 286
293 289 295 300 301 303 304 303 299 292 290 288 284 268 237 210 176 138 124 123 239 253 140 149 178 152 180 179 140 189 174 192 157 161 180 122 181 172 132 134 124 104 112 342 328 312 228
294 303 299 298 301 304 311 314 303 299 295 288 283 267 242 199 143 137 136 196 251 94 190 165 145 139 161 168 156 139 204 160 161 137 132 160 170 158 194 157 166 172 162 163 200 204 255
281 287 303 296 300 305 316 317 311 303 297 297 305 251 196 187 157 155 169 222 268 139 125 123 121 148 199 179 113 107 300 148 151 172 151 135 185 112 123 130 148 183 173 177 85 51 27
276 292 293 295 297 303 313 317 318 312 307 309 250 223 210 151 148 162 182 267 101 125 131 154 135 196 138 144 110 144 242 239 137 160 148 201 96 34 140 111 38 139 165 94 26 238 247
277 283 287 294 293 293 309 315 321 324 322 359 126 244 49 138 152 180 245 69 109 142 119 192 142 164 143 145 126 148 180 158 210 167 125 148 99 242 117 195 163 100 134 62 125 145 194
270 279 280 291 293 291 309 316 325 335 335 68 318 31 159 171 218 226 306 47 149 155 15 265 132 99 151 138 113 167 187 191 180 147 168 174 120 125 180 267 152 144 167 153 137 222 216
273 281 278 286 289 291 304 313 323 335 26 68 321 115 139 297 237 124 13 55 351 201 243 202 136 162 141 139 106 157 126 46 159 144 165 172 36 98 44 8 357 190 192 148 116 96 195
269 273 270 273 286 287 302 318 320 326 354 116 59 155 106 205 240 194 137 187 181 242 263 61 90 127 104 102 46 132 101 53 68 111 88 98 129 156 186 196 147 177 180 171 148 147 178
259 265 263 266 274 280 299 315 317 319 321 134 137 254 172 208 242 148 105 148 152 93 79 28 62 80 120 123 97 102 100 120 54 97 88 120 123 117 84 127 134 177 180 172 181 171 173
251 259 260 259 267 284 300 307 315 320 3 95 183 219 11 21 10 101 17 89 120 99 97 354 82 346 345 104 56 142 138 128 171 70 81 17 124 111 76 48 69 127 170 168 189 203 245
241 249 249 256 258 277 285 292 315 329 22 136 206 302 109 319 37 99 189 167 163 130 46 56 136 109 49 325 43 90 73 73 98 128 114 94 129 109 210 53 62 312 216 186 178 193 158
239 235 244 243 252 262 269 288 306 343 52 142 179 121 91 255 29 201 135 95 135 177 132 92 54 123 180 146 99 35 53 67 57 36 52 115 87 72 149 75 194 225 316 156 127 64 116
225 224 235 232 246 252 251 265 279 347 16 114 153 135 136 134 173 45 74 110 96 47 59 72 19 21 164 86 79 50 2 12 16 29 24 45 117 119 165 193 295 46 187 149 159 120 30
217 219 225 224 236 226 226 242 246 355 353 99 104 142 117 123 227 129 102 96 128 104 47 40 15 28 59 84 88 147 180 170 220 1 16 45 68 105 86 148 214 188 149 99 94 226 345
213 216 215 212 223 191 202 210 218 100 338 127 158 113 94 103 304 98 139 169 117 95 98 137 168 98 46 89 100 140 183 150 161 168 174 94 33 149 149 219 289 248 227 63 122 199 149
202 203 208 199 200 185 184 191 185 164 275 164 167 96 119 106 331 16 40 128 89 98 142 184 91 346 52 83 126 183 141 202 111 154 173 162 143 176 97 104 264 214 71 166 158 128 153
196 197 197 190 189 180 170 174 167 212 184 133 122 131 93 84 156 360 56 52 34 150 128 54 143 154 166 96 115 115 129 118 145 201 33 193 178 175 177 217 245 332 125 130 146 152 196